User: anonymous   Login
Location: Asheville, NC
(35.6000°N, 82.5500°W)
Time: 08:23:57
(UTC-04:00)
Language:

Oscar 19 - Orbit

View from above orbital plane
View from above orbital plane
View from above satellite
View from above satellite

Ground track
Ground track

The orbit data is extracted from the following two-line orbital elements,

1 20442U 90005G   18113.81597104  .00000015  00000-0  21738-4 0  9996
2 20442  98.6065  52.6532 0010959 315.2861  44.7438 14.32893101476101
Epoch (UTC): 23 April 2018 19:34:59
Eccentricity: 0.0010959
inclination: 98.6065°
perigee height: 774 km
apogee height: 790 km
right ascension of ascending node: 52.6532°
argument of perigee: 315.2861°
revolutions per day: 14.32893101
mean anomaly at epoch: 44.7438°
orbit number at epoch: 47610

The dashed part of the orbit path shows where the satellite is in the earth's shadow,  

DLR